STARLINK-5628 (55466 NORAD) Tracking and Keplerian Element Data

This shows tracking and keplerian element data for the satellite.

Feedback or suggestion? Click here.




ElementValue
Catalog55466
NameSTARLINK-5628
Epoch Orbit831
Epoch Day85.25001157
Epoch Year2023
RAAN76.7175
Inclination43.0007
Eccentricity0.0001348
Argument of Perigee271.3523
Mean Anonmoly157.6122
Mean Motion15.49020532
Decay Rate-0.00176274
L11 55466U 23015T 23085.25001157 -.00176274 00000+0 -32414-2 0 9990
L22 55466 43.0007 76.7175 0001348 271.3523 157.6122 15.49020532 8311



Live tracking and technical data element details for STARLINK-5628 (NORAD 55466). STARLINK-5628 can be tracked NOW for your location showing map with azimuth and elevation plus other details from your city location.







IsCatalogInMostPopularTable: catalog: 55466, numindb: -1

Insert: records affected: 1


GetName: 55466 STARLINK-5628

Hit Count: inserted at: Tue, 28 Mar 2023 01:40:19 GMT